This is the latest recevied weather packets stored in our database for station/object WB6ANP. If no packets are shown the sender has not sent any weather packets the latest 10 day(s).
| Time | Temp. | Humidity | Pressure | Rain* | Wind** | Luminosity | Snow |
|---|---|---|---|---|---|---|---|
| 1777912970 | 23.33° C | 62% | 1011 hPa | 0 mm | - | 842 W/m² | - |
| 1777912665 | 22.78° C | 63% | 1011.3 hPa | 0 mm | - | 799 W/m² | - |
| 1777912362 | 22.78° C | 62% | 1011.4 hPa | 0 mm | - | 578 W/m² | - |
| 1777912058 | 22.78° C | 63% | 1011.4 hPa | 0 mm | - | 660 W/m² | - |
| 1777911754 | 22.78° C | 62% | 1011.4 hPa | 0 mm | - | 603 W/m² | - |
| 1777911451 | 22.78° C | 62% | 1011.5 hPa | 0 mm | - | 699 W/m² | - |
| 1777911148 | 22.78° C | 62% | 1011.6 hPa | 0 mm | - | 786 W/m² | - |
| 1777910845 | 22.22° C | 63% | 1011.8 hPa | 0 mm | - | 759 W/m² | - |
| 1777910541 | 22.22° C | 62% | 1011.9 hPa | 0 mm | - | 759 W/m² | - |
| 1777910239 | 22.22° C | 62% | 1012 hPa | 0 mm | - | 712 W/m² | - |
| 1777909936 | 22.22° C | 63% | 1011.8 hPa | 0 mm | - | 729 W/m² | - |
| 1777909632 | 21.67° C | 64% | 1012 hPa | 0 mm | - | 721 W/m² | - |
| 1777909330 | 21.67° C | 64% | 1011.8 hPa | 0 mm | - | 727 W/m² | - |
| 1777909028 | 21.67° C | 64% | 1011.7 hPa | 0 mm | - | 671 W/m² | - |
| 1777908725 | 21.11° C | 65% | 1011.6 hPa | 0 mm | - | 666 W/m² | - |
| 1777908422 | 21.11° C | 66% | 1011.8 hPa | 0 mm | - | 542 W/m² | - |
| 1777908119 | 21.11° C | 64% | 1011.8 hPa | 0 mm | - | 601 W/m² | - |
| 1777907815 | 21.11° C | 65% | 1012.1 hPa | 0 mm | - | 687 W/m² | - |
| 1777907510 | 20.56° C | 66% | 1011.8 hPa | 0 mm | - | 639 W/m² | - |
| 1777907207 | 20.56° C | 66% | 1012.2 hPa | 0 mm | - | 650 W/m² | - |
| 1777906904 | 20.56° C | 66% | 1012.2 hPa | 0 mm | - | 409 W/m² | - |
| 1777906601 | 20° C | 67% | 1012.1 hPa | 0 mm | - | 633 W/m² | - |
| 1777906297 | 20° C | 67% | 1012 hPa | 0 mm | - | 569 W/m² | - |
| 1777905994 | 20° C | 67% | 1012.2 hPa | 0 mm | - | 528 W/m² | - |
| 1777905690 | 20° C | 68% | 1012.2 hPa | 0 mm | - | 510 W/m² | - |
* Rain latest hour (hover to see other rain measurements)
** Current wind speed in m/s (hover to see current wind gust speed)